#timestamp,LO_Frequency,Hit,StdDev 
1581185395.5,286046989.0,P
1581185415.3,286046991.6,P
1581185435.2,286046989.1,P
1581185455.9,286046991.5,Y
1581185475.7,286046998.2,P
1581185495.6,286047001.2,N
1581185515.4,286046998.4,N
1581185535.3,286046999.3,N
1581185555.1,286046996.8,N
1581185556.0,286046996.8,N
1581185575.8,286046997.4,N
1581185595.7,286046994.9,N
1581185615.5,286046997.3,N
1581185635.4,286046997.7,N
1581185655.2,286046996.0,N
1581185675.0,286046996.1,N
1581185675.9,286046996.1,N
1581185695.8,286046995.1,N
1581185715.6,286046995.1,N
1581185735.4,286046995.9,N
1581185755.3,286046993.8,N
1581185805.1,286046996.4,E
1581185815.1,286046997.6,N
1581185816.0,286046997.6,P
1581185835.8,286046999.0,P
1581185855.6,286046996.5,Y
1581185875.5,286046998.1,P
1581185895.3,286046998.8,P
1581185915.2,286046997.1,P
1581185935.9,286046997.3,Y
1581185955.7,286047000.5,P
1581185975.6,286047000.9,N
1581185995.4,286047000.7,N
1581186015.2,286047000.1,N
1581186035.1,286047000.3,N
1581186036.0,286047000.3,N
1581186055.8,286047000.6,N
1581186075.7,286047001.1,N
1581186095.5,286046998.8,N
1581186115.3,286046998.9,N
1581186135.2,286046998.2,N
1581186155.0,286046998.6,N
1581186155.9,286046998.6,N
1581186175.7,286047000.6,N
1581186195.6,286047001.0,N
1581186215.4,286047001.0,N
1581186235.3,286047001.1,N
1581186255.1,286047000.3,N
1581186256.0,286047000.3,N
1581186275.8,286046998.1,N
1581186295.7,286046998.5,N
1581186315.5,286046999.4,N
1581186335.3,286046999.0,N
1581186355.2,286047001.2,N
1581186375.0,286046998.5,N
1581186375.9,286046998.5,N
1581186395.8,286046998.6,N
1581186415.6,286046998.8,N
1581186435.4,286046998.1,N
1581186455.3,286046999.0,N
1581186475.1,286046999.0,N
1581186495.8,286046999.6,N
1581186515.7,286046999.4,N
1581186535.5,286046996.6,Y
1581186555.4,286046997.0,P
1581186575.2,286046996.5,N
1581186595.0,286046997.0,N
1581186595.9,286046997.0,N
1581186615.8,286046999.5,N
1581186635.6,286046999.6,N
1581186655.5,286046996.7,N
1581186675.3,286046997.6,N
1581186695.1,286046995.2,Y
1581186715.9,286046998.8,P
1581186735.7,286046999.3,N
1581186755.5,286046999.4,N
1581186775.4,286046999.6,N
1581186795.2,286046999.5,N
1581186815.1,286046999.1,N
1581186816.0,286046999.1,N
1581186835.8,286046997.5,Y
1581186855.6,286046996.7,P
1581186875.5,286046995.4,P
1581186895.3,286046997.5,N
1581186915.2,286046997.5,N
1581186935.9,286046997.6,N
1581186955.7,286046997.7,N
1581186975.6,286046997.8,N
1581186995.4,286046997.8,N
1581187015.2,286046995.0,Y
1581187035.1,286046999.4,P
1581187036.0,286046999.4,N
1581187055.8,286046999.2,N
1581187075.7,286046998.6,N
1581187095.5,286046998.6,N
1581187115.3,286046998.3,N
1581187135.2,286046998.4,N
1581187155.9,286046998.7,N
1581187175.7,286047001.1,N
1581187195.6,286047000.3,N
1581187215.4,286047000.0,N
1581187235.3,286047002.7,N
1581187255.1,286047000.1,N
1581187256.0,286047000.1,N
1581187275.8,286047000.3,N
1581187295.7,286047001.0,N
1581187315.5,286047000.0,N
1581187335.3,286047000.5,N
1581187355.2,286047000.8,N
1581187375.0,286047000.7,N
1581187375.9,286047000.7,N
1581187395.8,286047000.5,N
1581187415.6,286047000.3,N
1581187435.4,286047000.0,N
1581187455.3,286047000.4,N
1581187475.1,286047000.0,N
1581187495.9,286046999.7,N
1581187515.7,286047002.0,N
1581187535.5,286047001.9,N
1581187555.4,286047001.3,N
1581187575.2,286047001.6,N
1581187595.1,286047004.3,Y
1581187596.0,286047004.3,P
1581187615.8,286047001.9,N
1581187635.6,286047002.3,N
1581187655.5,286046999.8,N
1581187675.3,286047002.6,N
1581187695.1,286047002.3,N
1581187715.9,286047002.1,N
1581187735.7,286047002.3,N
1581187755.6,286047002.0,N
1581187775.4,286047001.4,N
1581187795.2,286047004.3,Y
1581187815.1,286046999.9,P
1581187816.0,286046999.9,N
1581187835.8,286047000.1,N
1581187855.6,286047000.1,N
1581187875.5,286047002.8,Y
1581187895.3,286047001.9,P
1581187915.2,286047001.8,N
1581187935.9,286047003.7,P
1581187955.7,286047004.1,Y
1581187975.6,286047002.8,P
1581187995.4,286047002.6,P
1581188015.2,286047000.2,N
1581188035.1,286047000.0,N
1581188036.0,286047000.0,N
1581188055.8,286047002.4,N
1581188075.7,286047002.7,N
1581188095.5,286047000.4,N
1581188115